[[{"header":{"parameterUnit":"m.s-1","parameterCategory":1,"la1":30.2991,"la2":30.254,"lo1":-89.0895,"lo2":-89.0444,"dy":0.0017,"dx":0.0017,"nx":28,"ny":28,"refTime":"2025-05-21T03:00:00:Z","depth":0,"parameterNumber":2,"parameterNumberName":"U-component_of_WINDS"},"data":[0,0,0,0,0,0,0,0,0,0,0,0,0,0,0,0,0,0,0,0,0,0,0,0,0,0,0,0,0,0,0,0,0,0,0,0,0,0,0,0,0,0,0,0,0,0,0,0,0,0,0,0,0,0,0,0,0,0,0.9899,0.9901,0,1.0017,1.0019,1.002,0.998,0.9978,0.9975,0.9973,1.01,1.0106,1.0112,0,0,0,0,0,0,0,0,0,0,0,0,0,0.9647,0.9651,0.9899,0.9901,0.9902,1.0017,1.0019,1.0021,0.9981,0.9978,0.9975,0.9972,1.0098,1.0105,1.0112,0,0,0,0,0,0,0,0,0,0,0,0,0,0.976,0.9653,0.9899,0.9896,0.9897,1.0017,1.0019,1.0021,0.9982,0.9978,0.9974,0.997,1.0096,1.0105,1.0113,1.0245,0,0,1.014,1.0144,0,0,0,0,0,0,0,0,0.9753,0.9769,0.9895,0.9897,0.9898,0.998,0.9976,1.0096,0.9982,0.995,0.9973,0.9968,1.0064,1.0075,1.0106,1.0251,1.0257,1.0141,1.0146,1.015,1.0152,0,0,0,0,0,0,0,0.9746,0.9764,0.9946,0.9897,0.9899,0.9891,0.9903,0.9999,1.0028,0.9952,0.995,0.9964,1.0064,1.0098,1.0109,1.0258,1.014,1.0148,1.0154,1.0157,1.052,1.0524,0,0,0,0,0,0,0.9736,0.9758,0.9942,0.995,0.9814,0.9899,0.9912,0.9958,1.0026,1.0033,0.9967,0.9961,1.0085,1.0099,1.0113,1.0273,1.015,1.0158,1.0163,1.0516,1.0521,1.0526,0,0,0,0,0,0,0.9731,0.9753,0.9938,0.9853,0.9876,0.9907,0.9959,0.9962,0.9996,1.0037,1.0043,0.9996,1.0082,1.0101,1.0213,1.0277,1.0162,1.017,1.0511,1.0517,1.0523,1.0594,0,0,0,0,0,0,0.9724,0.9751,0.98,0.9854,0.9881,1.0033,0.9963,0.9967,1.001,1.0004,1.0066,1.0072,1.0081,1.02,1.0221,1.0287,1.0177,1.0505,1.0514,1.0521,1.0586,1.0602,1.0616,0,0,0,0,0,0.9715,0.9816,0.9803,0.9825,0.9942,1.0037,1.0052,1.0058,1.0015,1.0066,1.0093,1.007,1.0266,1.0212,1.0235,1.0305,1.0501,1.0511,1.0521,1.0579,1.0599,1.0616,0,0,0,0,0,0,0.977,0.9823,0.9809,0.993,0.9979,1.003,1.0094,1.0078,1.0142,1.0134,1.014,1.0154,1.027,1.0298,1.0236,1.0437,1.0378,1.0393,1.0414,1.0433,1.0448,1.0439,1.0184,0,0,0,0,0,0.9796,0.9867,0.991,1.0013,1.0039,1.0062,1.0104,1.0104,1.0156,1.0177,1.0212,1.0265,1.0339,1.0387,1.0457,1.059,1.0604,1.065,1.0664,1.0676,1.069,1.0764,1.0785,1.0558,1.0558,1.0558,0,0,0.9852,0.9889,0.9934,1.0026,1.0063,1.0139,1.008,1.0162,1.0219,1.019,1.0297,1.0325,1.0386,1.0508,1.0564,1.0536,1.0756,1.0689,1.0698,1.0706,1.0776,1.0798,1.0817,1.0565,1.0564,1.0563,0,0,0.9991,1.0025,1.0116,1.0155,1.0212,1.0228,1.0249,1.0303,1.032,1.0427,1.0408,1.0477,1.0603,1.0647,1.0686,1.0843,1.0826,1.0866,1.0945,1.1017,1.1035,1.1051,1.1109,1.1129,1.0879,1.088,1.088,0,1.0053,1.0163,1.0165,1.0249,1.0291,1.0266,1.0359,1.0398,1.0477,1.0507,1.0474,1.0633,1.0671,1.0805,1.0843,1.0875,1.0902,1.086,1.1032,1.1048,1.1063,1.1118,1.1139,1.0884,1.0884,1.0883,1.0883,0,1.0237,1.0315,1.0381,1.0456,1.0505,1.0594,1.0611,1.0661,1.0657,1.0677,1.0788,1.0834,1.0913,1.0945,1.0942,1.1079,1.106,1.1029,1.097,1.1089,1.1141,1.1162,1.0891,1.0889,1.0888,1.0887,0,0,1.0415,1.0489,1.0514,1.0548,1.061,1.0671,1.076,1.0835,1.088,1.0935,1.1011,1.1119,1.1091,1.1135,1.1138,1.1201,1.1325,1.1163,1.1164,1.1193,1.1481,1.1504,1.1528,1.1313,1.1317,1.1321,1.1476,0,1.056,1.0712,1.0717,1.0857,1.093,1.0909,1.0986,1.1034,1.1055,1.1122,1.1146,1.1223,1.118,1.1206,1.1268,1.1297,1.1383,1.1285,1.1386,1.139,1.1372,1.1555,1.158,1.1725,1.1496,1.15,1.1502,0,1.0749,1.0809,1.0957,1.101,1.1041,1.111,1.118,1.1244,1.1299,1.131,1.136,1.1353,1.1446,1.1383,1.1513,1.1446,1.1488,1.1509,1.1515,1.1525,1.1454,1.1572,1.1771,1.1793,1.1534,1.1532,1.1529,0,1.0866,1.0983,1.1087,1.1117,1.1181,1.1231,1.126,1.1311,1.1357,1.142,1.145,1.1523,1.1564,1.1622,1.1637,1.1589,1.1767,1.1705,1.1781,1.1781,1.182,1.1818,1.203,1.1846,1.1845,1.1845,1.1844,0,1.1028,1.1119,1.114,1.1204,1.1307,1.1312,1.1415,1.1441,1.1487,1.1557,1.1544,1.1611,1.1626,1.1697,1.1709,1.1816,1.1834,1.1847,1.185,1.1849,1.1847,1.1877,1.1868,1.1851,1.1849,1.1848,1.1847,0,1.1175,1.1192,1.1304,1.1356,1.1371,1.1445,1.149,1.1553,1.1572,1.1662,1.1683,1.1715,1.1798,1.1817,1.1917,1.1925,1.2052,1.2044,1.2032,1.2032,1.2108,1.2101,1.2347,1.238,1.2173,1.2175,1.2177,0,1.1278,1.1348,1.1406,1.1452,1.1483,1.1556,1.1603,1.1612,1.1661,1.173,1.1785,1.1866,1.1931,1.2065,1.2098,1.2174,1.2169,1.225,1.2181,1.2178,1.2172,1.2168,1.2176,1.2264,1.2266,1.2268,1.2269,0,1.1459,1.1464,1.153,1.1601,1.1656,1.1712,1.1765,1.1804,1.1821,1.1877,1.1961,1.2011,1.2112,1.2193,1.227,1.2303,1.2291,1.2291,1.2313,1.2313,1.2304,1.2311,1.207,1.2285,1.2284,1.2282,1.2282,1.2281,1.1588,1.165,1.1701,1.1776,1.1816,1.1867,1.1929,1.1955,1.2024,1.2106,1.2108,1.2199,1.2255,1.2356,1.2394,1.2467,1.2443,1.2474,1.2483,1.249,1.2498,1.2291,1.2481,1.2481,1.2481,1.248,1.248,0,1.177,1.1801,1.187,1.1945,1.2004,1.1984,1.2043,1.2095,1.2175,1.2227,1.2291,1.2388,1.2467,1.2506,1.2585,1.2637,1.2633,1.2658,1.2654,1.2663,1.2514,1.2488,1.2659,1.2659,1.2659,1.2659,1.2659,1.2659,1.1871,1.1974,1.1986,1.211,1.2142,1.223,1.2266,1.2313,1.2354,1.2463,1.2528,1.2552,1.26,1.2682,1.2755,1.2765,1.2795,1.2823,1.283,1.2691,1.2673,1.2655,1.2631,1.2829,1.283,1.2972,1.2974,1.2975]},{"header":{"parameterUnit":"m.s-1","parameterCategory":1,"la1":30.2991,"la2":30.254,"lo1":-89.0895,"lo2":-89.0444,"dy":0.0017,"dx":0.0017,"nx":28,"ny":28,"refTime":"2025-05-21T03:00:00:Z","depth":0,"parameterNumber":3,"parameterNumberName":"V-component_of_WINDS"},"data":[0,0,0,0,0,0,0,0,0,0,0,0,0,0,0,0,0,0,0,0,0,0,0,0,0,0,0,0,0,0,0,0,0,0,0,0,0,0,0,0,0,0,0,0,0,0,0,0,0,0,0,0,0,0,0,0,0,0,0.4461,0.4461,0,0.4483,0.4483,0.4483,0.441,0.4408,0.4405,0.4403,0.4431,0.4434,0.4437,0,0,0,0,0,0,0,0,0,0,0,0,0,0.4361,0.4363,0.4461,0.4461,0.4462,0.4483,0.4483,0.4483,0.441,0.4407,0.4405,0.4402,0.443,0.4434,0.4437,0,0,0,0,0,0,0,0,0,0,0,0,0,0.4396,0.4364,0.4461,0.4427,0.4425,0.4483,0.4483,0.4483,0.4411,0.4407,0.4404,0.4401,0.4429,0.4433,0.4437,0.453,0,0,0.445,0.4452,0,0,0,0,0,0,0,0,0.4394,0.4399,0.4432,0.443,0.4427,0.444,0.4458,0.4499,0.4412,0.4416,0.4403,0.4399,0.4437,0.4441,0.4452,0.4532,0.4533,0.4451,0.4453,0.4455,0.4456,0,0,0,0,0,0,0,0.4391,0.4398,0.447,0.4433,0.443,0.4413,0.4414,0.4465,0.4445,0.4416,0.441,0.4414,0.4435,0.4448,0.4452,0.4533,0.4451,0.4454,0.4457,0.4459,0.4689,0.4692,0,0,0,0,0,0,0.4393,0.4397,0.4469,0.447,0.4402,0.4417,0.4419,0.4439,0.4445,0.4442,0.4416,0.441,0.4443,0.4447,0.4453,0.4561,0.4455,0.4459,0.4461,0.4685,0.4689,0.4693,0,0,0,0,0,0,0.4391,0.44,0.4468,0.4432,0.4439,0.4423,0.4446,0.4442,0.4454,0.4445,0.4442,0.4433,0.444,0.4447,0.4511,0.4561,0.4461,0.4465,0.4681,0.4686,0.4691,0.4778,0,0,0,0,0,0,0.4388,0.44,0.4434,0.4433,0.4442,0.4525,0.4449,0.4444,0.4461,0.4453,0.446,0.4458,0.4438,0.4505,0.4515,0.4565,0.4468,0.4676,0.4683,0.469,0.4771,0.4786,0.4799,0,0,0,0,0,0.4385,0.4459,0.4436,0.4445,0.4484,0.4528,0.4533,0.4507,0.4466,0.45,0.4494,0.4458,0.4554,0.4512,0.4523,0.4575,0.4673,0.4681,0.4689,0.4765,0.4783,0.4798,0,0,0,0,0,0,0.4469,0.4459,0.4433,0.4509,0.4519,0.4515,0.4559,0.4528,0.4552,0.4543,0.4512,0.4514,0.4584,0.4586,0.4539,0.4664,0.4606,0.4617,0.466,0.4677,0.4691,0.4689,0.4472,0,0,0,0,0,0.4496,0.4531,0.4521,0.4589,0.4595,0.4576,0.4594,0.4573,0.4584,0.4589,0.4587,0.46,0.4633,0.4655,0.4685,0.4771,0.4771,0.4812,0.4826,0.4837,0.4847,0.489,0.4908,0.472,0.472,0.4719,0,0,0.4553,0.4551,0.4576,0.4606,0.4611,0.4649,0.4581,0.4624,0.4652,0.4596,0.4655,0.4654,0.4667,0.4741,0.4774,0.4745,0.4898,0.4847,0.4857,0.486,0.4901,0.4918,0.4934,0.4725,0.4724,0.4723,0,0,0.4675,0.4678,0.4734,0.474,0.4749,0.4735,0.4749,0.4749,0.4746,0.4804,0.4762,0.4796,0.4854,0.4863,0.4876,0.5001,0.4968,0.5011,0.5084,0.5128,0.5142,0.5155,0.5199,0.5215,0.5021,0.5021,0.5021,0,0.4745,0.4799,0.4767,0.4813,0.4827,0.4775,0.4832,0.4841,0.486,0.4871,0.4838,0.4907,0.4912,0.4988,0.5018,0.503,0.5045,0.501,0.5142,0.5155,0.5167,0.5208,0.5224,0.5026,0.5026,0.5025,0.5025,0,0.4884,0.4922,0.4967,0.4983,0.5002,0.5054,0.5031,0.5054,0.5031,0.5022,0.5082,0.5085,0.5114,0.513,0.511,0.5203,0.5184,0.5148,0.5089,0.5191,0.5228,0.5244,0.5034,0.5032,0.503,0.5029,0,0,0.5061,0.5058,0.5074,0.508,0.5085,0.5115,0.5164,0.519,0.521,0.5225,0.5265,0.5314,0.5279,0.5293,0.5273,0.5311,0.5407,0.5269,0.5269,0.5294,0.5509,0.5536,0.5555,0.5386,0.5388,0.5391,0.5508,0,0.518,0.5261,0.5234,0.5317,0.5351,0.5302,0.5344,0.5352,0.5344,0.5373,0.5365,0.5399,0.5352,0.536,0.5395,0.5388,0.545,0.538,0.5423,0.5425,0.542,0.5575,0.5604,0.5714,0.5522,0.5525,0.5527,0,0.5331,0.5348,0.5434,0.5431,0.5444,0.5483,0.5503,0.5531,0.554,0.5531,0.5546,0.5517,0.5566,0.5507,0.5573,0.5525,0.5541,0.5541,0.5544,0.5547,0.5482,0.5581,0.5749,0.5765,0.555,0.5548,0.5546,0,0.5449,0.5495,0.5551,0.5559,0.5557,0.5585,0.5586,0.5591,0.5607,0.5626,0.5636,0.5662,0.5675,0.5696,0.5674,0.5634,0.5743,0.5683,0.5738,0.5738,0.5763,0.5762,0.5935,0.5775,0.5775,0.5774,0.5774,0,0.5585,0.5639,0.5604,0.5639,0.5698,0.5667,0.5727,0.5722,0.5726,0.576,0.572,0.5753,0.5723,0.5753,0.5737,0.5794,0.5801,0.5795,0.579,0.5798,0.5799,0.5808,0.58,0.5779,0.5778,0.5777,0.5776,0,0.5728,0.5707,0.5765,0.5758,0.5757,0.5801,0.5795,0.5828,0.5816,0.5859,0.5868,0.585,0.5884,0.5864,0.5899,0.5888,0.5961,0.5946,0.5958,0.5953,0.6009,0.6003,0.6193,0.6216,0.6043,0.6044,0.6046,0,0.5816,0.5856,0.5852,0.587,0.5873,0.5904,0.592,0.589,0.5909,0.592,0.5951,0.5981,0.6002,0.6058,0.6049,0.6075,0.606,0.6125,0.6064,0.607,0.606,0.6057,0.6061,0.6137,0.6139,0.6141,0.6142,0,0.5973,0.596,0.5983,0.6003,0.6023,0.6038,0.6049,0.6067,0.6037,0.6061,0.6093,0.6109,0.6143,0.6173,0.6195,0.6197,0.6165,0.6161,0.6175,0.6184,0.6188,0.6185,0.599,0.6157,0.6156,0.6155,0.6154,0.6153,0.609,0.6123,0.6124,0.6152,0.6157,0.6168,0.6197,0.6188,0.6214,0.6238,0.6219,0.6257,0.6263,0.6289,0.6295,0.6325,0.6299,0.6319,0.6324,0.633,0.6337,0.6184,0.6329,0.6329,0.6328,0.6328,0.6327,0,0.6244,0.6242,0.6268,0.6284,0.6305,0.6271,0.6282,0.6302,0.6336,0.6343,0.6365,0.6401,0.6429,0.6422,0.6447,0.6472,0.6458,0.648,0.6478,0.6478,0.6359,0.6344,0.6491,0.6491,0.6491,0.6491,0.6491,0.6491,0.6327,0.6379,0.6366,0.6421,0.6419,0.6455,0.6463,0.6474,0.6479,0.6521,0.6543,0.6537,0.6539,0.6563,0.6588,0.6585,0.6596,0.6623,0.6614,0.6503,0.6487,0.6472,0.6457,0.6625,0.6626,0.6731,0.6732,0.6733]}]]